Temp
2 2 1 1 1 1 1 1 1 0 1 1 0 1 0 1 0 1 1 0 -0 -0 -0 -0 -0 0 0 1 1 1 1 1 1 1 1 0 0 0 1 1 1 1 1
2 2 1 1 1 1 1 1 0 -0 0 0 0 0 0 1 0 -0 -0 -0 -0 -1 -1 -1 -1 -1 -0 0 0 1 1 1 1 1 1 1 1 0 0 0 0 1 1
1 1 1 1 1 1 0 0 0 0 0 0 0 0 0 0 -0 -0 -0 -0 -0 -1 -1 -1 -1 -1 -1 -1 -1 -0 0 1 1 1 1 1 1 1 1 1 1 -0 -0
1 2 1 1 1 1 1 1 0 0 -0 -0 -0 -0 -0 -0 -0 0 -0 -0 -1 -1 -1 -1 -2 -2 -2 -2 -2 -1 -1 -1 -1 -1 -0 0 0 1 1 0 0 1 1
2 1 1 1 1 1 1 0 -0 -0 -1 -1 -0 -0 0 0 -0 -0 -1 -1 -1 -1 -1 -2 -2 -2 -2 -2 -3 -2 -2 -2 -1 -1 -1 -1 -1 -0 0 0 -0 0 0
2 1 1 1 1 1 0 -0 -0 -1 -1 -1 -1 -1 -1 -1 -1 -1 -1 -2 -2 -2 -2 -2 -2 -2 -3 -3 -3 -3 -3 -3 -4 -3 -3 -3 -3 -2 -1 -1 -1 -1 -0
1 1 1 1 1 0 0 -0 -0 -0 -1 -1 -1 -1 -1 -1 -2 -2 -2 -2 -2 -2 -3 -3 -3 -3 -3 -4 -4 -4 -5 -5 -6 -6 -6 -6 -6 -6 -5 -4 -5 -5 -4
1 1 1 1 0 0 -0 -0 -1 -1 -1 -1 -2 -2 -2 -2 -2 -2 -3 -3 -3 -3 -3 -4 -4 -4 -5 -5 -5 -6 -6 -7 -8 -8 -8 -9 -9 -9 -8 -8 -7 -7 -7
1 1 1 1 0 0 -0 -1 -1 -1 -2 -2 -3 -3 -3 -3 -3 -3 -3 -3 -4 -4 -5 -5 -5 -6 -6 -6 -7 -7 -8 -9 -9 -10 -11 -11 -11 -11 -11 -10 -10 -9 -9
1 1 1 1 0 -0 -1 -1 -1 -2 -3 -3 -3 -3 -3 -3 -3 -4 -3 -4 -5 -5 -6 -7 -7 -7 -7 -8 -8 -9 -9 -10 -11 -11 -12 -12 -12 -12 -12 -12 -12 -12 -11
1 1 1 0 -0 -1 -1 -2 -3 -3 -3 -3 -4 -3 -3 -4 -4 -4 -4 -5 -6 -7 -8 -8 -8 -9 -9 -10 -10 -11 -11 -11 -12 -13 -13 -13 -13 -13 -13 -12 -12 -12 -12
1 1 0 -0 -0 -1 -2 -3 -3 -3 -3 -3 -4 -4 -4 -4 -4 -5 -6 -7 -8 -9 -9 -9 -10 -11 -11 -11 -12 -12 -13 -13 -13 -13 -13 -13 -13 -13 -13 -13 -12 -13 -12
1 0 -0 -1 -1 -3 -3 -3 -3 -3 -3 -4 -4 -4 -5 -5 -6 -7 -8 -9 -9 -9 -9 -10 -11 -12 -12 -12 -13 -13 -14 -14 -14 -13 -13 -13 -13 -13 -13 -13 -13 -13 -13
0 -0 -1 -2 -2 -3 -2 -3 -4 -3 -5 -5 -4 -5 -5 -6 -7 -8 -9 -9 -9 -9 -9 -10 -12 -12 -13 -13 -14 -14 -14 -14 -14 -14 -14 -14 -14 -14 -14 -14 -14 -14 -14
-0 -1 -2 -2 -2 -4 -3 -3 -4 -5 -5 -5 -5 -6 -6 -7 -8 -9 -10 -10 -10 -10 -10 -12 -12 -13 -13 -14 -14 -14 -14 -14 -14 -14 -14 -14 -14 -15 -15 -15 -15 -15 -14
-1 -1 -2 -3 -3 -4 -4 -5 -6 -5 -5 -6 -6 -6 -7 -8 -10 -10 -10 -10 -11 -11 -11 -13 -13 -14 -14 -14 -14 -14 -14 -14 -14 -14 -15 -15 -15 -15 -15 -15 -15 -15 -15
-2 -3 -4 -2 -3 -3 -5 -5 -6 -5 -6 -7 -7 -7 -8 -10 -10 -10 -11 -11 -11 -12 -12 -13 -13 -14 -14 -14 -15 -15 -15 -15 -15 -15 -15 -16 -16 -16 -16 -16 -16 -16 -15
-3 -3 -3 -3 -4 -4 -5 -5 -5 -6 -7 -8 -8 -8 -9 -10 -10 -11 -11 -11 -12 -13 -13 -13 -14 -14 -14 -15 -15 -15 -15 -16 -16 -16 -16 -16 -16 -16 -16 -16 -16 -16 -16
-4 -4 -4 -4 -4 -4 -4 -5 -5 -8 -7 -8 -8 -9 -10 -10 -11 -11 -11 -12 -13 -13 -14 -14 -14 -14 -15 -15 -15 -15 -16 -16 -16 -17 -17 -17 -17 -17 -17 -17 -16 -16 -16
-3 -3 -4 -4 -4 -4 -5 -4 -7 -7 -8 -8 -9 -10 -10 -10 -11 -11 -12 -13 -13 -14 -14 -14 -15 -15 -15 -15 -15 -16 -16 -17 -17 -17 -17 -17 -17 -17 -17 -17 -17 -17 -17
-3 -4 -4 -4 -4 -4 -4 -7 -8 -8 -8 -9 -10 -10 -11 -11 -11 -12 -12 -13 -13 -14 -14 -15 -15 -15 -15 -15 -16 -16 -16 -16 -17 -18 -18 -17 -18 -18 -18 -18 -18 -17 -17
-3 -4 -4 -4 -5 -5 -7 -8 -9 -9 -9 -10 -10 -11 -11 -11 -12 -12 -13 -13 -14 -14 -14 -15 -15 -15 -15 -16 -16 -16 -16 -16 -17 -18 -17 -17 -18 -18 -18 -18 -18 -18 -18
-3 -4 -4 -4 -6 -7 -8 -8 -9 -9 -9 -10 -11 -11 -11 -12 -12 -13 -13 -14 -14 -15 -15 -15 -15 -16 -16 -16 -16 -16 -16 -16 -17 -18 -18 -17 -18 -18 -19 -19 -19 -18 -18
-3 -5 -7 -7 -8 -8 -9 -9 -9 -10 -10 -11 -11 -11 -12 -12 -12 -13 -13 -14 -14 -15 -15 -15 -16 -16 -16 -16 -16 -16 -16 -16 -17 -18 -18 -17 -18 -18 -18 -19 -19 -18 -18
-6 -6 -7 -8 -8 -9 -9 -10 -10 -11 -11 -11 -12 -12 -12 -12 -13 -14 -14 -14 -15 -15 -16 -16 -16 -16 -16 -16 -16 -16 -16 -16 -16 -17 -18 -18 -18 -18 -18 -19 -19 -18 -18
-7 -7 -8 -8 -9 -9 -10 -11 -11 -11 -11 -12 -12 -12 -12 -13 -14 -14 -14 -15 -15 -16 -16 -16 -16 -16 -16 -16 -16 -16 -16 -16 -17 -17 -18 -18 -19 -18 -18 -18 -19 -19 -18
Height
3184 3185 3184 3185 3184 3182 3182 3181 3181 3181 3179 3178 3176 3175 3174 3171 3169 3166 3164 3161 3159 3155 3153 3150 3149 3148 3147 3145 3143 3141 3139 3139 3137 3136 3134 3133 3132 3131 3130 3128 3127 3126 3126
3182 3182 3181 3182 3181 3179 3180 3179 3179 3177 3175 3174 3173 3171 3169 3167 3165 3162 3159 3156 3154 3150 3147 3145 3142 3140 3140 3139 3136 3135 3134 3132 3130 3129 3128 3126 3125 3125 3123 3122 3121 3121 3120
3179 3178 3179 3179 3178 3177 3177 3176 3176 3174 3172 3170 3168 3166 3164 3162 3159 3156 3154 3151 3148 3145 3142 3139 3137 3134 3131 3130 3131 3127 3125 3123 3122 3120 3118 3118 3117 3116 3115 3115 3115 3114 3112
3177 3176 3176 3176 3175 3174 3174 3174 3174 3171 3169 3167 3164 3161 3158 3155 3152 3149 3147 3146 3143 3140 3137 3134 3131 3128 3125 3122 3119 3119 3118 3115 3113 3111 3108 3105 3104 3103 3103 3105 3106 3104 3102
3174 3174 3174 3172 3172 3173 3172 3171 3169 3168 3166 3163 3159 3156 3153 3150 3147 3144 3142 3139 3136 3133 3130 3127 3123 3120 3117 3114 3112 3109 3106 3105 3103 3101 3098 3096 3092 3089 3089 3088 3089 3091 3092
3171 3170 3170 3170 3169 3169 3167 3166 3164 3163 3160 3157 3154 3152 3150 3147 3143 3139 3136 3132 3130 3127 3124 3121 3117 3113 3110 3106 3103 3100 3097 3094 3091 3089 3087 3085 3082 3080 3076 3073 3072 3072 3074
3166 3167 3167 3167 3166 3165 3163 3162 3160 3158 3156 3152 3150 3147 3144 3140 3137 3134 3131 3128 3125 3121 3118 3114 3110 3106 3102 3098 3093 3089 3086 3083 3080 3077 3075 3073 3071 3068 3066 3065 3061 3058 3056
3163 3164 3163 3162 3162 3160 3159 3156 3155 3153 3151 3148 3145 3141 3137 3134 3131 3128 3125 3121 3117 3113 3109 3104 3100 3096 3091 3087 3083 3079 3075 3072 3068 3065 3062 3060 3057 3055 3053 3052 3051 3049 3045
3159 3159 3158 3157 3157 3155 3153 3151 3150 3148 3143 3140 3137 3137 3131 3128 3123 3121 3116 3112 3107 3103 3098 3093 3089 3084 3080 3076 3072 3069 3065 3061 3058 3055 3051 3048 3046 3044 3042 3039 3038 3037 3036
3153 3153 3153 3152 3151 3150 3148 3146 3144 3141 3137 3134 3131 3128 3125 3121 3116 3111 3106 3103 3098 3093 3088 3083 3078 3074 3070 3066 3062 3058 3054 3051 3048 3044 3040 3038 3035 3032 3030 3028 3027 3026 3025
3148 3148 3147 3147 3146 3144 3142 3139 3135 3132 3129 3126 3123 3119 3116 3111 3107 3102 3097 3093 3088 3083 3079 3074 3070 3066 3062 3057 3053 3048 3045 3041 3038 3034 3031 3028 3024 3021 3019 3017 3016 3015 3013
3143 3143 3142 3141 3141 3138 3134 3131 3127 3123 3121 3117 3114 3111 3106 3102 3097 3093 3087 3083 3077 3074 3070 3065 3061 3056 3053 3049 3045 3041 3037 3033 3029 3024 3020 3016 3013 3010 3008 3006 3004 3002 3001
3138 3138 3137 3135 3133 3129 3126 3123 3119 3116 3113 3109 3105 3101 3097 3092 3088 3082 3077 3072 3068 3063 3060 3057 3053 3047 3043 3039 3035 3031 3026 3023 3018 3014 3010 3006 3002 2998 2995 2993 2991 2990 2989
3131 3130 3128 3127 3124 3121 3118 3115 3111 3109 3104 3100 3096 3093 3088 3082 3076 3071 3067 3064 3060 3056 3052 3047 3043 3039 3035 3031 3026 3022 3017 3013 3008 3003 2999 2995 2990 2986 2982 2980 2979 2977 2977
3123 3122 3121 3119 3116 3113 3110 3107 3103 3100 3097 3092 3088 3083 3077 3071 3066 3063 3060 3057 3052 3048 3045 3039 3034 3029 3025 3022 3017 3012 3007 3002 2998 2993 2988 2982 2978 2974 2970 2968 2966 2964 2963
3116 3114 3113 3110 3109 3105 3102 3100 3096 3092 3087 3083 3078 3072 3066 3062 3059 3055 3052 3048 3044 3040 3036 3032 3027 3022 3017 3012 3006 3002 2997 2992 2987 2982 2976 2971 2967 2963 2960 2957 2955 2953 2952
3108 3106 3104 3103 3099 3097 3095 3090 3085 3081 3076 3071 3067 3062 3058 3054 3051 3048 3044 3041 3037 3033 3028 3024 3018 3014 3009 3003 2997 2992 2987 2982 2976 2971 2965 2960 2957 2953 2949 2946 2944 2943 2941
3100 3098 3096 3094 3091 3087 3083 3078 3073 3069 3065 3061 3057 3053 3050 3047 3044 3040 3037 3033 3029 3024 3019 3015 3011 3006 3000 2995 2989 2984 2979 2973 2967 2961 2955 2951 2947 2942 2938 2936 2934 2933 2931
3091 3089 3086 3085 3081 3077 3074 3067 3063 3060 3056 3052 3049 3046 3044 3040 3037 3033 3030 3025 3020 3016 3011 3006 3002 2997 2992 2987 2982 2976 2971 2965 2959 2952 2947 2943 2937 2934 2930 2928 2925 2924 2921
3083 3082 3079 3074 3068 3066 3061 3056 3056 3052 3048 3044 3041 3039 3037 3032 3029 3025 3021 3017 3012 3008 3003 2998 2994 2990 2985 2980 2974 2969 2964 2959 2951 2945 2939 2934 2929 2927 2924 2920 2918 2915 2913
3075 3072 3068 3064 3058 3053 3048 3050 3048 3044 3039 3036 3034 3031 3028 3024 3021 3017 3012 3008 3005 3000 2995 2991 2987 2982 2978 2973 2968 2962 2956 2950 2945 2938 2934 2928 2924 2921 2918 2915 2912 2909 2906
3064 3063 3057 3051 3045 3042 3047 3043 3038 3034 3031 3028 3026 3022 3019 3015 3011 3008 3004 3000 2997 2992 2988 2983 2980 2975 2971 2966 2962 2956 2950 2944 2938 2933 2928 2924 2918 2917 2914 2911 2907 2903 2900
3055 3053 3045 3040 3043 3042 3037 3034 3030 3026 3023 3020 3017 3013 3009 3006 3002 2999 2995 2991 2988 2984 2980 2976 2972 2968 2964 2960 2955 2950 2945 2938 2932 2927 2922 2917 2915 2912 2909 2905 2901 2898 2894
3048 3045 3041 3039 3036 3033 3028 3025 3022 3018 3013 3011 3008 3004 3000 2996 2993 2990 2985 2982 2979 2975 2971 2968 2965 2961 2957 2953 2949 2945 2940 2933 2928 2922 2916 2911 2910 2907 2905 2901 2897 2892 2888
3039 3036 3032 3030 3027 3024 3020 3017 3012 3008 3005 3002 2998 2994 2990 2987 2984 2980 2975 2973 2969 2967 2962 2960 2957 2953 2950 2946 2943 2939 2934 2928 2923 2918 2913 2907 2905 2902 2900 2898 2892 2886 2881
3029 3026 3024 3021 3018 3015 3011 3007 3003 2998 2995 2991 2987 2983 2980 2976 2973 2969 2965 2963 2960 2959 2953 2952 2949 2946 2942 2939 2936 2933 2928 2923 2918 2913 2908 2904 2900 2896 2895 2893 2888 2881 2876
Wind_Speed
9 9 10 11 11 8 7 8 9 11 15 20 24 26 26 28 30 29 30 31 31 31 32 32 31 28 25 25 25 25 25 23 24 25 25 23 24 25 25 25 25 26 28
8 8 8 7 6 5 6 8 10 15 21 25 28 29 31 32 30 29 31 31 31 31 32 32 32 32 31 29 32 31 31 31 31 29 28 28 27 25 28 29 30 31 31
5 3 5 5 5 5 7 10 15 19 23 27 30 32 33 32 30 30 30 31 32 33 33 34 34 35 36 35 34 37 39 39 38 38 38 34 33 35 36 36 35 36 37
5 5 6 6 6 8 10 14 17 21 25 28 29 29 32 34 35 34 34 33 32 33 35 36 37 38 39 41 42 41 41 43 44 44 44 45 44 45 46 45 43 44 44
6 8 9 8 9 11 14 16 20 23 25 28 29 30 33 35 34 35 35 34 35 36 38 40 42 43 44 46 46 47 47 48 47 48 49 50 51 54 55 54 52 49 48
8 9 10 10 12 15 16 18 21 24 26 28 28 29 35 36 35 36 36 38 39 40 41 43 44 46 48 50 50 51 50 50 50 51 51 52 54 56 58 60 60 59 59
9 10 12 13 14 16 19 22 26 29 29 29 31 35 38 41 38 36 37 39 39 39 43 45 46 47 48 50 51 50 50 51 51 50 49 50 50 51 54 56 57 57 59
12 13 14 16 17 19 22 26 30 34 37 39 38 37 40 40 36 37 40 39 40 42 45 46 46 47 48 49 49 49 49 50 49 47 47 46 45 45 47 48 51 52 51
16 15 16 19 22 24 27 31 33 40 41 41 36 39 37 39 37 36 38 39 41 44 46 46 47 48 49 49 49 48 48 47 46 44 42 42 43 43 43 44 44 45 46
19 18 20 23 26 28 33 35 39 46 38 36 38 36 35 35 36 40 41 40 42 43 43 44 45 45 46 46 46 46 46 46 45 44 43 43 43 44 45 45 44 44 42
23 21 24 27 28 33 37 41 37 40 47 36 36 35 35 36 36 38 40 42 41 39 39 40 41 43 43 42 42 43 42 42 42 42 42 43 44 45 45 46 46 44 42
25 27 28 28 31 35 39 36 40 38 45 36 34 36 36 37 36 38 39 38 38 38 39 38 38 37 38 39 39 39 39 39 41 43 44 44 45 45 45 45 44 42 40
27 29 28 30 34 33 36 36 40 41 40 39 37 36 37 36 37 36 36 37 36 36 37 37 36 36 36 36 36 36 39 40 42 43 44 44 44 45 44 44 43 42 39
24 26 27 28 31 34 36 37 36 41 37 37 37 36 37 37 34 33 32 33 36 38 39 37 34 35 35 35 36 37 39 40 41 42 43 43 44 45 45 45 43 43 41
20 23 27 31 30 32 36 41 41 38 38 36 35 36 36 33 31 31 31 33 35 36 36 36 36 37 36 36 38 39 40 40 41 41 43 43 42 42 41 40 38 37 36
22 24 28 28 32 32 38 39 42 39 42 35 36 37 34 31 30 30 32 33 32 34 36 33 34 35 35 36 39 39 40 40 41 41 40 39 37 36 36 35 33 31 30
24 26 29 31 35 35 38 44 41 41 38 34 36 35 31 30 30 32 33 32 32 33 34 33 35 33 35 37 39 39 39 40 40 38 38 37 36 35 33 32 29 29 29
26 27 29 34 36 40 41 46 46 41 32 35 37 34 31 32 32 34 33 32 32 32 34 35 34 35 36 37 38 39 38 38 38 37 37 37 35 34 32 31 29 28 27
31 33 30 37 36 44 47 56 49 32 38 37 34 32 32 33 33 33 33 32 32 32 34 34 34 35 36 36 37 36 35 35 35 35 35 33 32 30 29 28 28 27 27
30 31 39 40 45 46 51 53 37 38 37 35 31 32 33 34 33 33 33 32 32 32 33 34 33 35 35 35 35 35 33 32 33 32 33 32 30 27 26 26 26 27 26
31 36 40 48 49 49 54 39 38 37 38 32 31 33 34 34 34 33 33 32 33 32 33 33 33 34 33 33 32 32 33 33 31 30 30 28 26 23 23 24 25 24 24
36 42 49 49 53 53 37 36 34 39 34 32 32 33 34 34 34 33 33 34 33 32 32 33 33 33 31 30 29 29 31 33 31 28 27 24 23 20 21 22 23 21 22
42 50 63 61 43 39 37 36 38 35 34 32 33 34 35 35 34 34 35 35 33 32 31 32 32 31 30 28 26 27 30 31 29 26 28 25 21 19 20 19 24 24 23
43 43 35 34 37 37 36 35 33 34 33 34 36 36 36 36 36 34 36 36 34 32 30 32 31 30 29 27 25 25 27 29 28 25 27 29 23 20 17 18 23 24 25
33 32 30 33 35 33 32 34 34 34 35 37 37 37 37 37 35 35 37 36 35 32 32 31 30 29 28 26 24 24 26 28 28 24 24 27 23 22 14 14 22 23 25
31 31 32 31 31 33 32 33 34 37 37 38 38 38 38 37 35 36 38 37 36 31 33 30 29 28 28 26 23 23 25 27 28 27 26 25 19 22 17 16 20 24 22
Wind_Direction
234 252 262 273 281 295 298 307 315 319 331 333 333 330 328 329 325 322 324 326 326 326 325 321 319 314 308 301 299 294 291 288 282 279 278 278 279 279 275 271 270 268 267
245 266 273 268 278 296 303 308 323 331 332 328 325 323 321 322 321 318 321 322 323 323 321 317 315 311 306 301 299 297 291 288 285 280 275 275 275 275 280 282 278 273 269
255 282 272 266 269 294 311 326 328 328 326 324 321 320 318 320 323 324 323 322 320 319 318 314 311 308 305 302 297 297 295 292 287 284 284 278 276 279 283 280 274 274 273
255 279 267 265 296 311 313 315 317 321 319 321 323 324 326 326 324 323 322 319 318 316 314 312 309 306 304 303 301 297 294 293 292 288 285 283 282 283 284 286 283 280 274
260 275 272 284 294 296 300 307 311 312 315 322 325 326 326 321 319 318 316 316 315 313 311 310 309 307 306 304 301 298 296 293 290 287 287 286 287 287 287 287 286 282 277
265 274 281 285 288 291 293 297 302 308 318 322 321 318 325 318 313 314 313 313 312 312 310 307 305 303 302 301 298 296 294 292 291 289 288 287 286 285 286 288 289 288 287
270 282 281 281 285 291 293 295 300 303 306 312 318 311 311 317 307 310 312 308 305 305 307 304 299 298 297 294 292 291 290 288 287 286 285 284 284 284 284 284 287 289 290
266 269 274 284 289 293 295 297 298 300 300 305 306 313 311 315 309 303 310 308 304 301 301 298 294 292 291 291 290 289 288 288 287 288 288 288 289 289 288 288 287 288 290
258 268 275 281 284 287 289 290 292 298 298 312 302 314 309 315 310 308 310 309 303 300 299 298 296 295 294 293 293 292 291 290 290 291 293 294 293 291 290 290 290 289 287
263 266 273 275 277 286 291 290 290 305 314 305 310 311 307 311 307 308 310 307 303 301 299 297 296 295 294 293 293 291 290 290 291 293 294 293 292 291 290 289 289 288 286
267 271 275 275 280 285 288 296 302 310 311 305 305 311 311 313 310 309 308 306 303 302 301 299 299 297 296 294 293 293 292 293 292 290 290 289 288 288 288 287 286 285 283
267 268 268 275 282 286 294 307 309 304 313 313 316 312 312 313 310 308 306 306 306 305 302 297 296 296 298 297 296 295 293 292 292 292 292 291 291 289 287 285 285 284 281
267 273 284 282 288 293 301 307 304 310 310 311 313 314 314 310 310 309 310 310 308 306 307 308 307 305 302 299 298 296 295 295 295 294 293 293 291 289 287 285 284 282 279
269 279 285 290 296 298 298 302 302 308 316 316 314 313 315 313 314 312 311 309 311 314 312 309 309 306 304 303 300 298 297 297 296 296 295 293 290 288 286 284 281 279 276
277 283 287 285 287 295 301 295 302 305 308 311 313 316 316 314 314 312 312 313 310 311 311 308 310 308 305 304 302 302 302 301 300 298 296 294 291 288 286 284 283 279 275
277 282 290 291 292 297 302 300 300 308 304 306 315 318 314 312 311 313 312 310 310 309 308 307 307 306 306 306 305 305 305 304 303 301 300 297 294 293 291 288 286 281 277
281 283 287 284 296 291 292 297 304 297 301 314 319 314 310 308 311 311 309 308 306 306 308 310 310 310 308 307 307 308 309 307 306 305 302 300 299 298 294 289 286 282 279
287 295 292 290 286 291 281 305 301 297 311 321 317 310 305 305 309 308 306 306 306 309 311 310 309 310 311 309 309 310 311 310 308 306 303 303 303 299 295 294 292 288 283
289 291 294 298 299 299 291 299 294 305 314 316 308 300 299 303 307 305 303 305 308 310 308 309 311 311 310 309 311 313 314 312 310 307 305 306 302 298 296 296 295 292 289
294 289 291 298 288 295 297 290 300 308 311 308 298 294 299 304 303 301 302 305 307 308 308 309 311 310 310 310 314 316 316 316 314 312 310 308 302 301 299 299 300 300 296
285 285 291 291 285 283 287 300 306 307 310 299 294 296 300 301 299 299 300 303 305 307 308 308 311 310 309 312 315 318 321 322 320 316 313 308 304 301 297 299 302 302 300
274 291 278 277 275 281 310 306 303 306 300 293 296 297 299 298 297 297 299 300 303 305 306 306 308 308 307 311 314 319 324 325 323 317 316 313 302 299 298 307 313 312 304
285 297 289 276 294 305 303 305 305 301 296 297 297 298 297 296 294 296 297 298 302 302 303 303 307 306 306 308 312 319 326 327 326 323 318 315 305 301 303 308 312 313 310
288 306 305 299 297 301 305 305 298 299 299 297 297 297 296 295 294 294 293 295 298 299 298 301 305 304 304 305 308 317 324 329 331 328 319 316 313 306 302 312 312 312 306
288 300 300 299 301 303 302 301 301 300 297 296 295 294 294 292 293 291 291 293 294 297 293 299 302 304 302 302 303 313 323 330 333 331 320 317 314 305 298 304 321 319 309
299 303 301 302 302 302 300 301 297 294 295 295 296 295 293 294 293 291 290 290 291 294 290 294 298 304 301 298 299 309 320 327 330 331 325 321 314 303 294 309 329 324 324